サイディング・スプリング彗星

P/2024 N5 ( Siding Spring )

English version
Home page
Updated on September 4, 2024

---------------------------------------------------------------------

・ プロフィール

検出日 2024年7月5日
検出光度 19.1等
検出者 Martin Masek (Pierre Auger Observatory at Malarguee, Mendoza, Argentina)

・ 写真集

・ 軌道要素

Epoch 2024 Oct. 17.0 TT = JDT 2460600.5                                         
T 2024 Oct. 20.65071 TT                                 Rudenko                 
q   1.8149885            (2000.0)            P               Q                  
n   0.08395530     Peri.    0.86459     +0.64436606     -0.59509545             
a   5.1654000      Node    49.21122     +0.69775197     +0.20052106             
e   0.6486258      Incl.   39.37016     +0.31294500     +0.77823692             
P  11.7                                                                         
>From 337 observations 2012 Oct. 17-2024 July 25, mean residual 1".1.            

・ 星図

・ 光度変化

        m1 = 5.7 + 5 logΔ + 35.0 log r(t - 15)

---------------------------------------------------------------------

軌道要素はM.P.E.C. 2024-O57に掲載されたものです。
星図はステラナビゲータ Ver.11 (アストロアーツ) で作成したものです。
光度グラフはComet for Windowsで作成したものです。

---------------------------------------------------------------------

Copyright(C) Seiichi Yoshida (comet@aerith.net). All rights reserved.